STARLINK-32690 (62453 NORAD) Tracking and Keplerian Element Data

This shows tracking and keplerian element data for the satellite.

Feedback or suggestion? Click here.




ElementValue
Catalog62453
NameSTARLINK-32690
Epoch Orbit605
Epoch Day34.83335648
Epoch Year2025
RAAN36.5054
Inclination53.1605
Eccentricity0.0001475
Argument of Perigee110.5125
Mean Anonmoly164.1966
Mean Motion15.39582062
Decay Rate0.00053453
L11 62453U 24251X 25034.83335648 .00053453 00000+0 13386-2 0 9990
L22 62453 53.1605 36.5054 0001475 110.5125 164.1966 15.39582062 6052



Live tracking and technical data element details for STARLINK-32690 (NORAD 62453). STARLINK-32690 can be tracked NOW for your location showing map with azimuth and elevation plus other details from your city location.







IsCatalogInMostPopularTable: catalog: 62453, numindb: 15
Update: records affected: 1



GetName: 62453 STARLINK-32690

Hit Count: updated at: Sun, 18 May 2025 22:47:42 GMT